Regional Weather Roundup
Issued by NWS

Home | Current Version | Previous Version | Graphics & Text | Print | Product List | Glossary On
Versions: 1 2 3 4 5 6 7 8 9 10 11 12 13 14 15 16 17 18 19 20 21 22 23 24 25 26 27 28 29 30 31 32 33 34 35 36 37 38 39 40 41 42 43 44 45 46 47 48 49 50
000
ASUS45 KBOI 270410
RWRID
WEATHER ROUNDUP FOR IDAHO
NATIONAL WEATHER SERVICE BOISE ID
1000 PM MDT TUE AUG 26 2014

NOTE: "FAIR" INDICATES FEW OR NO CLOUDS BELOW 12000 FEET
WITH NO SIGNIFICANT WEATHER AND/OR OBSTRUCTIONS TO VISIBILITY

IDZ012-014-270500-
SOUTHWEST IDAHO


CITY           SKY/WX    TMP DP  RH WIND       PRES   REMARKS
BOISE          CLEAR     74  47  38 CALM      30.06R
CALDWELL       CLEAR     72  43  35 SW3       30.06R
MOUNTAIN HOME  CLEAR     71  45  39 W3        30.08R
$$

IDZ016-017-270500-
SOUTHCENTRAL IDAHO


CITY           SKY/WX    TMP DP  RH WIND       PRES   REMARKS
BURLEY         PTCLDY    65  51  60 W7        30.12R
JEROME         CLEAR     62  48  60 CALM      30.14R
TWIN FALLS     PTCLDY    61  49  64 S7        30.14R
$$

IDZ019>023-270500-
SOUTHEAST IDAHO


CITY           SKY/WX    TMP DP  RH WIND       PRES   REMARKS
IDAHO FALLS    PTCLDY    57  50  77 N3        30.17R
POCATELLO      CLEAR     60  51  72 SE5       30.15R
REXBURG        CLEAR     59  49  69 CALM      30.17R
$$

IDZ006-010-011-018-031-032-270500-
CENTRAL IDAHO MOUNTAINS


CITY           SKY/WX    TMP DP  RH WIND       PRES   REMARKS
MCCALL         CLEAR     60  40  47 CALM      30.16R
HAILEY         PTCLDY    54  46  76 NW9       30.22R
STANLEY          N/A     50  39  66 S3        30.26R
SALMON         CLEAR     59  52  77 CALM      30.12R
CHALLIS        CLEAR     58  46  64 CALM      30.18R
$$

IDZ002-004-006-007-026-270500-
NORTHERN IDAHO


CITY           SKY/WX    TMP DP  RH WIND       PRES   REMARKS
LEWISTON       CLEAR     75  43  31 S6        29.99R
LOWELL           N/A     62  53  72 NW3       30.05R
COEUR D`ALENE  CLEAR     70  52  52 E3        30.02R
MULLAN PASS    CLEAR     57  39  51 NW3       30.24R
$$


USA.gov is the U.S. government's official web portal to all federal, state and local government web resources and services.